This demonstration page uses our WeatherBlox Daily Observations layout. Learn more.

Left ArrowRight Arrow

Hourly Observations for November 29, 2021

Temp ( °F °C ) Dew Point ( °F °C ) Humidity (%) Winds ( mph kmh ) Pressure ( in mb ) Visibility ( mi km ) Precip ( " mm )
12:54 am 00:54 Clear 37 2.8 28 -2.2 70 70 S 8 13 30.00 1016 10 16 N/A
1:54 am 01:54 Clear 37 2.8 28 -2.2 70 70 S 9 15 29.97 1015 10 16 N/A
2:54 am 02:54 Clear 36 2.2 28 -2.2 73 73 S 5 7 29.96 1015 10 16 N/A
3:54 am 03:54 Clear 35 1.7 27 -2.8 72 72 S 6 9 29.95 1014 10 16 N/A
4:54 am 04:54 Clear 35 1.7 28 -2.2 76 76 S 6 9 29.93 1014 10 16 N/A
5:54 am 05:54 Clear 35 1.7 28 -2.2 76 76 S 5 7 29.94 1014 10 16 N/A
6:54 am 06:54 Clear 34 1.1 27 -2.8 76 76 SSE 5 7 29.93 1014 10 16 N/A
7:54 am 07:54 Sunny 34 1.1 28 -2.2 79 79 S 6 9 29.93 1014 10 16 N/A
8:54 am 08:54 Sunny 41 5 31 -0.6 67 67 N N/A 29.94 1014 10 16 N/A
9:54 am 09:54 Sunny 53 11.7 35 1.7 51 51 W 7 11 29.93 1014 10 16 N/A
10:54 am 10:54 Sunny 57 13.9 36 2.2 45 45 W 7 11 29.93 1013 10 16 N/A
11:54 am 11:54 Sunny 63 17.2 37 2.8 38 38 W 7 11 29.90 1013 10 16 N/A
12:54 pm 12:54 Sunny 70 21.1 37 2.8 30 30 W 8 13 29.87 1012 10 16 N/A
1:54 pm 13:54 Sunny 70 21.1 35 1.7 28 28 NW 15 24 29.87 1012 10 16 N/A
2:54 pm 14:54 Sunny 70 21.1 35 1.7 28 28 NW 12 19 29.88 1012 10 16 N/A
3:54 pm 15:54 Sunny 69 20.6 36 2.2 30 30 NW 10 17 29.89 1012 10 16 N/A
4:54 pm 16:54 Sunny 64 17.8 37 2.8 37 37 WNW 5 7 29.91 1013 10 16 N/A
5:54 pm 17:54 Clear 58 14.4 36 2.2 44 44 NW 6 9 29.94 1014 10 16 N/A
6:54 pm 18:54 Clear 47 8.3 34 1.1 61 61 N 6 9 29.96 1015 10 16 N/A
7:54 pm 19:54 Clear 49 9.4 34 1.1 56 56 NNW 6 9 29.98 1015 10 16 N/A
8:54 pm 20:54 Clear 41 5 32 undefined 70 70 N 6 9 30.01 1016 10 16 N/A
9:54 pm 21:54 Clear 39 3.9 31 -0.6 73 73 N N/A 30.03 1017 10 16 N/A
10:54 pm 22:54 Clear 36 2.2 29 -1.7 76 76 N 5 7 30.04 1017 10 16 N/A
11:54 pm 23:54 Clear 39 3.9 31 -0.6 73 73 NE 5 7 30.06 1018 10 16 N/A

Powered by AerisWeather